TITAN 3C TRANSTAGE DEB, 36983

Orbit data source: Space-Track

TITAN 3C TRANSTAGE DEB, 36983 is space debris originally from a launch on Tue, 21 Dec 1965 UTC launched from the Air Force Eastern Test Range (AFETR). Debris objects in space refer to the collection of defunct objects orbiting the Earth. Examples of debris include non-operational satellites, rocket bodies, and fragments generated from explosions, collisions, or faulty payload assembly.

Loading next visibility...
Identifier
36983, 1965-108DP
Orbit
Active
Country
Flag of USUS
Related business
Manufacturer
Unknown
Mission
Spacecraft
Bus & Motor
Unknown
Mass
Unknown
Launch date (UTC)
1965-12-21 (60 years ago)
Launch vehicle
Unknown
Launch site
Air Force Eastern Test Range (AFETR)
Object type
Payload
Rocket body
Debris
Shape & HBR
Unknown shape, 0.3 m
Radar Cross Section
Medium (>0.1 m² and <1 m²)

Expand to show TLE details & history
Last TLE update: 10 hours ago

TLE from 10 hours ago
0 TITAN 3C TRANSTAGE DEB
1 36983U 65108DP  25342.76204329  .00029470  00000-0  81677-3 0  9992
2 36983  27.0709  36.9817 4465542 239.2814  69.3332  6.66141515588269
Epoch: 2025-12-08T18:17Z
TLE epoch observation values (Epoch: 2025-12-08T18:17:20.540Z)
Latitude
-0°
Longitude
44.88969°
Altitude
5,999.489 km
Speed
5.568 km/s
True Right ascension
02h 27m 55s
True Declination
0° 00' 00"
Sunlit
Object was in daylight at epoch
Visualization orbit readout
Latitude
Unknown
Longitude
Unknown
Altitude
Unknown
Speed
Unknown
Apparent Right ascension
Unknown
Apparent Declination
Unknown
Sunlit
N/A
Visualization observer readout
Local Sidereal Time
02:16:33
Azimuth
Unknown
Elevation
Unknown
Doppler factor
Unknown
Orbital elements
Apogee altitude
10,886.407 km
Perigee altitude
227.208 km
Semi-major axis
11,934.945 km
Eccentricity
0.44655
Inclination
27.0709°
RAAN
36.9817°
Arg. of periapsis
239.2814°
True anomaly
120.76353°
Mean anomaly
69.3332°
Eccentric anomaly
94.82809°
Mean motion
1.66461 °/min
Orbital period
216.27 mins
BSTAR
0.00081677
Loading maneuver chart data...
Computing Atmospheric mass density...

Documentation

Showing up to 5 results
|